Miscellaneous Local Product
Issued by NWS Hastings, NE

Home | Current Version | Previous Version | Graphics & Text | Print | Product List | Glossary On
Versions: 1 2 3 4 5 6 7 8 9 10 11 12 13 14 15 16 17 18 19 20 21 22 23 24 25 26 27 28 29 30 31 32 33 34 35 36 37 38 39 40 41 42 43 44 45 46 47 48 49 50
912
AXUS43 KGID 230202
MISGRI

GID CWA HOURLY WEATHER ROUNDUP
NATIONAL WEATHER SERVICE HASTINGS NE
900 PM CDT SAT JUL 22 2017

NOTE: "FAIR" INDICATES FEW OR NO CLOUDS BELOW 12,000 FEET WITH NO
SIGNIFICANT WEATHER AND/OR OBSTRUCTIONS TO VISIBILITY.

...SOUTH CENTRAL NEBRASKA...

CITY           SKY/WX    TMP DP  RH WIND       PRES   REMARKS
GRAND ISLAND   CLOUDY    77  72  84 NE9       29.95R
HASTINGS         N/A     79  71  76 E8        29.96R
KEARNEY        CLOUDY    78  71  79 SE3       29.98R
ORD            CLEAR     77  71  82 CALM      29.96S
YORK           CLOUDY    77  73  88 E3        29.96R
AURORA         CLOUDY    77  72  84 CALM      29.96R
LEXINGTON      PTCLDY    76  68  76 CALM      29.99S
HOLDREGE       CLOUDY    77  71  82 N7        29.98R
HEBRON         CLOUDY    83  74  74 SE8       29.97R

...NEBRASKA PANHANDLE...

CITY           SKY/WX    TMP DP  RH WIND       PRES   REMARKS
CHADRON        PTCLDY    83  53  35 E6        30.03R
ALLIANCE       CLEAR     77  48  35 S8        30.07R
SCOTTSBLUFF    CLEAR     81  54  39 E7        30.07R
SIDNEY         CLOUDY    80  44  27 SE9       30.13R

...WESTERN AND NORTH CENTRAL NEBRASKA...

CITY           SKY/WX    TMP DP  RH WIND       PRES   REMARKS
VALENTINE      CLEAR     91  50  24 VRB3      29.98R
AINSWORTH      CLEAR     80  63  55 SE3       29.99S
ONEILL         CLEAR     78  64  62 SE5       29.97S
BROKEN BOW     CLEAR     73  66  78 NE6       29.99S
IMPERIAL       CLEAR     76  51  41 SE8       30.05S
NORTH PLATTE   CLEAR     75  62  64 CALM      30.02R
MCCOOK         PTCLDY    80  57  45 CALM      30.01R

...EASTERN NEBRASKA...

CITY           SKY/WX    TMP DP  RH WIND       PRES   REMARKS
NORFOLK        CLEAR     76  67  73 NE5       29.94R
SO SIOUX CITY  CLEAR     76  75  97 W5        29.90R
TEKAMAH        CLOUDY    78  73  84 N3        29.90R
COLUMBUS       MOCLDY    74  69  85 E6        29.93S
ALBION         CLEAR     75  68  77 CALM      29.96R
OMAHA EPPLEY   CLOUDY    80  73  79 N13       29.91R
MILLARD        CLOUDY    83  73  72 N3        29.92R
LINCOLN        CLOUDY    81  72  74 N5        29.93R
NEBRASKA CITY  MOCLDY    82  80  96 N8        29.90R HX  93
BEATRICE       CLOUDY    83  76  80 NE6       29.93R HX  91
FALLS CITY     CLOUDY    83  78  85 W5        29.90R HX  93

...NORTHERN KANSAS...

CITY           SKY/WX    TMP DP  RH WIND       PRES   REMARKS
GOODLAND       PTCLDY    76  51  41 E8        30.08R
HILL CITY      LGT RAIN  75  71  87 NE14      29.94F FOG
NORTON         CLEAR     79  63  57 NE6       29.98F
PHILLIPSBURG   PTCLDY    82  72  69 NE5       29.97S
SMITH CENTER   CLEAR     75  70  83 SE3       29.98R
HAYS           LGT RAIN  74  69  85 NE15      29.94F
RUSSELL        LGT RAIN  73  66  78 E12       29.96R
CONCORDIA      CLOUDY    72  68  87 SE7       29.95F
SALINA         TSTM      79  69  71 N15       29.91R
TOPEKA         TSTM      75  73  93 W14       29.92R FOG



USA.gov is the U.S. government's official web portal to all federal, state and local government web resources and services.